Location: ????????
(54.9045°N, 39.1041°E)
Time: 14:40:37
(UTC+00:00)

Envisat - Pass Details

Date: 14 April 2024
Orbit: 762 x 764 km, 98.3° (Epoch: 28 May)

Event Time Altitude Azimuth Distance (km) Brightness Sun altitude
Rises 01:00:24 0° 15° (NNE) 3,245 7.1 -11.4°
Reaches altitude 10° 01:02:43 10° 17° (NNE) 2,314 6.3 -11.1°
Maximum altitude 01:07:50 82° 105° (ESE) 779 3.1 -10.5°
Drops below altitude 10° 01:12:54 10° 194° (SSW) 2,296 5.0 -9.9°
Enters shadow 01:14:27 - 195° (SSW) 2,918 5.6 -9.7°
